Somerville, NJ

6:56 AM EDT on May 27, 2018 (GMT -0400)
Somerset

Weather History for KSMQ - April, 2012

Change the Weather History Date:

Friday, April 27, 2012

  Actual Average Record
Temperature  
Mean Temperature 48 °F -  
Max Temperature 57 °F 65 °F 89 °F (1990)
Min Temperature 39 °F 41 °F 28 °F (1933)
Degree Days  
Heating Degree Days 17    
Moisture  
Dew Point 29 °F    
Average Humidity 48    
Maximum Humidity 89    
Minimum Humidity 32    
Precipitation  
Precipitation 0.00 in - - ()
Sea Level Pressure  
Sea Level Pressure 29.90 in    
Wind  
Wind Speed 11 mph (NW)    
Max Wind Speed 22 mph    
Max Gust Speed 32 mph    
Visibility 10 miles    
Events      
Averages and records for this station are not official NWS values.
T = Trace of Precipitation, MM = Missing Value Source: NWS Daily Summary

Daily Weather History Graph

Daily Weather History Graph

Search for Another Location

Airport or City:

Astronomy

Apr. 27, 2012 Rise Set
Actual Time 6:02 AM EDT 7:51 PM EDT
Civil Twilight 5:32 AM EDT 8:20 PM EDT
Nautical Twilight 4:57 AM EDT 8:56 PM EDT
Astronomical Twilight 4:18 AM EDT 9:34 PM EDT
Moon 10:37 AM EDT 12:36 AM EDT
Length of Visible Light 14h 47m
Length of Day
13h 48m
Waxing Crescent, 33% of the Moon is Illuminated
Apr 27
Waxing Crescent
Apr 29
First Quarter
May 5
Full
May 12
Last Quarter
May 20
New

Hourly Weather History & Observations

Time (EDT) Temp. Windchill Dew Point Humidity Pressure Visibility Wind Dir Wind Speed Gust Speed Precip Events Conditions
12:53 AM 57.0 °F - 54.0 °F 89% 29.61 in 6.0 mi NW 5.8 mph - N/A   Overcast
1:06 AM 57.2 °F - 48.2 °F 72% 29.62 in 9.0 mi NW 13.8 mph 20.7 mph N/A   Overcast
1:53 AM 55.9 °F - 45.0 °F 67% 29.63 in 10.0 mi NNW 11.5 mph - N/A   Overcast
2:53 AM 53.1 °F - 39.9 °F 61% 29.66 in 10.0 mi NW 13.8 mph 21.9 mph N/A   Mostly Cloudy
3:53 AM 48.0 °F - 30.0 °F 50% 29.73 in 10.0 mi NW 16.1 mph 27.6 mph N/A   Scattered Clouds
4:53 AM 46.9 °F - 30.0 °F 52% 29.75 in 10.0 mi WNW 10.4 mph 20.7 mph N/A   Clear
5:53 AM 46.0 °F 40.6 °F 30.0 °F 54% 29.78 in 10.0 mi NW 11.5 mph 18.4 mph N/A   Clear
6:53 AM 46.9 °F - 30.9 °F 54% 29.81 in 10.0 mi Variable 3.5 mph - N/A   Partly Cloudy
7:53 AM 48.0 °F - 32.0 °F 54% 29.83 in 10.0 mi Variable 6.9 mph - N/A   Mostly Cloudy
8:53 AM 48.9 °F - 28.9 °F 46% 29.86 in 10.0 mi NW 21.9 mph 32.2 mph N/A   Mostly Cloudy
9:53 AM 48.9 °F - 26.1 °F 41% 29.87 in 10.0 mi WNW 11.5 mph 23.0 mph N/A   Mostly Cloudy
10:53 AM 52.0 °F - 26.1 °F 37% 29.90 in 10.0 mi WNW 11.5 mph 25.3 mph N/A   Partly Cloudy
11:53 AM 48.9 °F - 25.0 °F 39% 29.93 in 10.0 mi NW 16.1 mph 26.5 mph N/A   Mostly Cloudy
12:53 PM 51.1 °F - 24.1 °F 35% 29.95 in 10.0 mi NNW 16.1 mph 23.0 mph N/A   Mostly Cloudy
1:53 PM 54.0 °F - 25.0 °F 33% 29.95 in 10.0 mi NW 9.2 mph 17.3 mph N/A   Mostly Cloudy
2:53 PM 53.1 °F - 24.1 °F 32% 29.96 in 10.0 mi NW 17.3 mph 26.5 mph N/A   Partly Cloudy
3:53 PM 52.0 °F - 24.1 °F 34% 29.96 in 10.0 mi NW 15.0 mph 25.3 mph N/A   Mostly Cloudy
4:53 PM 53.1 °F - 24.1 °F 32% 29.98 in 10.0 mi NW 16.1 mph 23.0 mph N/A   Mostly Cloudy
5:53 PM 51.1 °F - 23.0 °F 33% 30.01 in 10.0 mi NNW 15.0 mph 21.9 mph N/A   Clear
6:53 PM 50.0 °F - 23.0 °F 35% 30.04 in 10.0 mi NW 12.7 mph 21.9 mph N/A   Clear
7:53 PM 46.9 °F - 21.9 °F 37% 30.07 in 10.0 mi NNW 13.8 mph 18.4 mph N/A   Clear
8:53 PM 45.0 °F 41.8 °F 23.0 °F 42% 30.10 in 10.0 mi NNW 5.8 mph - N/A   Clear
9:53 PM 44.1 °F 40.8 °F 23.0 °F 43% 30.12 in 10.0 mi NW 5.8 mph - N/A   Clear
10:53 PM 39.0 °F - 25.0 °F 57% 30.14 in 10.0 mi Calm Calm - N/A   Clear
11:53 PM 39.2 °F 34.2 °F 26.6 °F 61% 30.15 in 10.0 mi NNW 6.9 mph - N/A   Clear